User: anonymous   Login
Location: Unspecified
(0.0000°N, 0.0000°E)
Time: 17:27:44
(UTC+00:00)
Language:

COSMOS-2408 - Orbit

View from above orbital plane
View from above orbital plane
View from above satellite
View from above satellite

Ground track
Ground track

The orbit data is extracted from the following two-line orbital elements,

1 28419U 04037A   18050.47866681  .00000028  00000-0  12292-3 0  9997
2 28419  82.4828  69.9150 0017206  90.2012 270.1040 12.45610913609627
Epoch (UTC): 19 February 2018 11:29:16
Eccentricity: 0.0017206
inclination: 82.4828°
perigee height: 1469 km
apogee height: 1496 km
right ascension of ascending node: 69.9150°
argument of perigee: 90.2012°
revolutions per day: 12.45610913
mean anomaly at epoch: 270.1040°
orbit number at epoch: 60962

The dashed part of the orbit path shows where the satellite is in the earth's shadow,  

DLR